Location: Katherine
(14.4670°S, 132.2670°E)
Time: 22:48:28
(UTC+09:30)

ISS - Pass Details

Date: 30 March 2017
Orbit: 399 x 409 km, 51.6° (Epoch: 29 March)

Event Time Altitude Azimuth Distance (km) Brightness Sun altitude
Exits shadow 05:45:30 16° 329° (NNW) 1,147 -1.8 -15.5°
Maximum altitude 05:47:59 74° 53° (NE) 428 -3.7 -14.9°
Drops below altitude 10° 05:51:17 10° 139° (SE) 1,474 -0.4 -14.1°
Sets 05:53:23 0° 140° (SE) 2,339 0.6 -13.5°
